Nome, AK

3:58 PM AKST on January 18, 2017 (GMT -0900)
Nome

Weather History for PAOM - January, 2013

Change the Weather History Date:

Tuesday, January 1, 2013

  Actual Average Record
Temperature  
Mean Temperature 28 °F -  
Max Temperature 34 °F 14 °F 36 °F (1968)
Min Temperature 22 °F -1 °F -38 °F (1949)
Degree Days  
Heating Degree Days 37 59  
Month to date heating degree days 37 59  
Since 1 July heating degree days 6165 5877  
Cooling Degree Days 0    
Month to date cooling degree days 0  
Year to date cooling degree days 0  
Moisture  
Dew Point 22 °F    
Average Humidity 0    
Maximum Humidity 0    
Minimum Humidity 0    
Precipitation  
Precipitation 0.00 in 0.03 in 0.64 in (1973)
Month to date precipitation 0.00 0.03  
Year to date precipitation 0.00 0.03  
Snow  
Snow 0.00 in 0.40 in 6.60 in (1973)
Month to date snowfall 0.0 0.4  
Since 1 July snowfall 17.3 32.2  
Snow Depth 15.00 in    
Sea Level Pressure  
Sea Level Pressure 29.22 in    
Wind  
Wind Speed 14 mph (NNE)    
Max Wind Speed 22 mph    
Max Gust Speed 26 mph    
Visibility 10 miles    
Events      
T = Trace of Precipitation, MM = Missing Value Source: NWS Daily Summary

Daily Weather History Graph

Daily Weather History Graph

Search for Another Location

Airport or City:

Trip Planner

Search our weather history database for the weather conditions in past years. The results will help you decide how hot, cold, wet, or windy it might be!

Date:

Astronomy

Jan. 01, 2013 Rise Set
Actual Time 11:58 AM AKST 4:12 PM AKST
Civil Twilight 10:39 AM AKST 5:31 PM AKST
Nautical Twilight 9:30 AM AKST 6:40 PM AKST
Astronomical Twilight 8:30 AM AKST 7:41 PM AKST
Moon 11:10 PM AKST (1/1) 12:13 PM AKST (1/1)
Length of Visible Light 6h 51m
Length of Day
4h 14m
Waning Gibbous, 82% of the Moon is Illuminated
Jan 1
Waning Gibbous
Jan 4
Last Quarter
Jan 11
New
Jan 18
First Quarter
Jan 26
Full

Hourly Weather History & Observations

Time (AKST) Temp. Windchill Dew Point Humidity Pressure Visibility Wind Dir Wind Speed Gust Speed Precip Events Conditions
12:53 AM 34.0 °F 25.5 °F 26.1 °F 73% 29.47 in 10.0 mi ENE 11.5 mph - N/A   Overcast
1:53 AM 33.1 °F 23.4 °F 26.1 °F 75% 29.46 in 10.0 mi NE 13.8 mph - N/A   Overcast
2:53 AM 33.1 °F 23.4 °F 26.1 °F 75% 29.43 in 10.0 mi NE 13.8 mph - N/A   Mostly Cloudy
3:53 AM 34.0 °F 24.2 °F 25.0 °F 70% 29.40 in 10.0 mi NNE 15.0 mph - N/A   Overcast
4:53 AM 33.1 °F 22.2 °F 25.0 °F 72% 29.37 in 10.0 mi NE 17.3 mph - N/A   Overcast
5:53 AM 34.0 °F 23.8 °F 25.0 °F 70% 29.35 in 10.0 mi NNE 16.1 mph - N/A   Overcast
6:53 AM 33.1 °F 22.2 °F 24.1 °F 70% 29.32 in 10.0 mi NE 17.3 mph - N/A   Mostly Cloudy
7:53 AM 32.0 °F 20.8 °F 24.1 °F 73% 29.29 in 10.0 mi NNE 17.3 mph 24.2 mph N/A   Mostly Cloudy
8:53 AM 32.0 °F 22.5 °F 23.0 °F 69% 29.26 in 10.0 mi NNE 12.7 mph - N/A   Mostly Cloudy
9:53 AM 30.9 °F 18.7 °F 23.0 °F 72% 29.23 in 10.0 mi NNE 19.6 mph - N/A   Mostly Cloudy
10:53 AM 32.0 °F 23.6 °F 21.0 °F 64% 29.21 in 10.0 mi North 10.4 mph - N/A   Mostly Cloudy
11:53 AM 33.1 °F 21.9 °F 21.0 °F 61% 29.19 in 10.0 mi NE 18.4 mph - N/A   Mostly Cloudy
12:53 PM 33.1 °F 20.9 °F 21.0 °F 61% 29.17 in 10.0 mi NE 21.9 mph - N/A   Mostly Cloudy
1:53 PM 30.9 °F 19.4 °F 21.0 °F 67% 29.15 in 10.0 mi NNE 17.3 mph - N/A   Mostly Cloudy
2:53 PM 30.9 °F 19.1 °F 21.0 °F 67% 29.13 in 10.0 mi NE 18.4 mph - N/A   Mostly Cloudy
3:53 PM 30.0 °F 19.1 °F 19.9 °F 66% 29.12 in 10.0 mi NE 15.0 mph - N/A   Mostly Cloudy
4:53 PM 30.0 °F 20.5 °F 19.4 °F 65% 29.10 in 10.0 mi NNE 11.5 mph - N/A   Mostly Cloudy
5:53 PM 30.0 °F 19.1 °F 19.4 °F 65% 29.09 in 10.0 mi NE 15.0 mph - N/A   Mostly Cloudy
6:53 PM 27.0 °F 16.7 °F 18.0 °F 69% 29.10 in 10.0 mi North 11.5 mph - N/A   Mostly Cloudy
7:53 PM 26.1 °F 16.8 °F 18.0 °F 71% 29.09 in 10.0 mi NNE 9.2 mph - N/A   Scattered Clouds
8:53 PM 30.0 °F 22.4 °F 19.0 °F 64% 29.07 in 10.0 mi North 8.1 mph - N/A   Overcast
9:53 PM 27.0 °F 19.5 °F 18.0 °F 69% 29.05 in 10.0 mi North 6.9 mph - N/A   Scattered Clouds
10:53 PM 26.1 °F 18.4 °F 16.0 °F 66% 29.07 in 10.0 mi North 6.9 mph - N/A   Mostly Cloudy
11:53 PM 23.0 °F 17.0 °F 15.1 °F 72% 29.08 in 10.0 mi NNE 4.6 mph - N/A   Mostly Cloudy